Station MCYI3 - Michigan City Harbor Entrance Light, Michigan City, IN Image indicating link to RSS feed of recent meteorological observations for station MCYI3


Conditions at MCYI3 as of
(11:50 am CDT)
1650 GMT on 07/13/2024:
     

Click on the graph icon in the table below to see a time series plot of the last five days of that observation.

5-day plot - Wind Direction Wind Direction (WDIR):NNW ( 340 deg true )
5-day plot - Wind Speed Wind Speed (WSPD): 4 kts
5-day plot - Wind Gust Wind Gust (GST): 6 kts
5-day plot - Atmospheric Pressure Atmospheric Pressure (PRES):30.11 in
5-day plot - Air Temperature Air Temperature (ATMP): 80.4 °F
5-day plot - Dew Point Dew Point (DEWP): 69.3 °F
5-day plot - Heat Index Heat Index (HEAT): 83.5 °F
5-day plot -  Wind Speed, Wind Gust and Atmospheric Pressure Combined plot of Wind Speed, Gust, and Air Pressure
Previous observations
TIME
(CDT)
5-day plot - Wind Direction
WDIR
 
5-day plot - Wind Speed
WSPD
kts
5-day plot - Wind Gust
GST
kts
5-day plot - Wave Height
WVHT
ft
5-day plot - Dominant Wave Period
DPD
sec
5-day plot - Average Wave Period
APD
sec
5-day plot - Mean Wave Direction
MWD
 
5-day plot - Atmospheric Pressure
PRES
in
5-day plot - Pressure Tendency
PTDY
in
5-day plot - Air Temperature
ATMP
°F
5-day plot - Water Temperature
WTMP
°F
5-day plot - Dew Point
DEWP
°F
5-day plot - Salinity
SAL
psu
5-day plot - Visibility
VIS
nmi
5-day plot - Tide (above MLLW)
TIDE
ft
2024-07-13 11:40 am NW 4 5----30.11- 80.2- 68.7---
2024-07-13 11:30 amNNW 3 3----30.11- 80.1- 68.9---
2024-07-13 11:20 amWNW 8 9----30.11- 81.3- 66.9---
2024-07-13 11:10 am W 7 8----30.12- 81.0- 66.7---
2024-07-13 11:00 amWNW 8 10----30.11-0.02 80.4- 68.0---
2024-07-13 10:50 am W 5 6----30.11- 80.4- 67.8---
2024-07-13 10:40 am W 7 7----30.11- 80.6- 68.2---
2024-07-13 10:30 amWNW 5 8----30.12- 80.1- 68.5---
2024-07-13 10:20 am W 8 9----30.12- 80.1- 68.0---
2024-07-13 10:10 am W 10 11----30.11- 80.2- 66.9---
2024-07-13 10:00 amWSW 7 8----30.11-0.04 80.1- 67.8---
2024-07-13 09:50 amWSW 6 8----30.11- 79.9- 67.3---
2024-07-13 09:40 am W 7 7----30.12- 79.0- 68.9---
2024-07-13 09:30 am W 8 10----30.12- 78.6- 69.1---
2024-07-13 09:20 am W 6 9----30.13- 78.1- 70.0---
2024-07-13 09:10 am W 8 10----30.14- 77.9- 69.6---
2024-07-13 09:00 am W 9 10----30.13+0.00 77.5- 69.6---
2024-07-13 08:50 am W 7 8----30.13- 77.5- 69.1---
2024-07-13 08:40 am W 6 7----30.13- 77.5- 68.9---
2024-07-13 08:30 amWSW 6 7----30.13- 77.0- 68.5---
2024-07-13 08:20 amWSW 4 6----30.14- 76.6- 68.5---
2024-07-13 08:10 amWSW 6 8----30.14- 76.6- 67.6---
2024-07-13 08:00 am SW 2 3----30.14+0.01 75.6- 66.6---
2024-07-13 07:50 am SW 3 3----30.14- 73.2- 66.6---
2024-07-13 07:40 amWNW 2 3----30.14- 71.4- 66.6---
2024-07-13 07:30 amWNW 2 3----30.15- 70.3- 66.2---
2024-07-13 07:20 am NW 1 2----30.14- 70.5- 66.4---
2024-07-13 07:10 amWSW 2 3----30.15- 69.6- 65.8---
2024-07-13 07:00 amWSW 2 3----30.14+0.03 69.4- 65.7---
2024-07-13 06:50 amWSW 1 2----30.14- 69.8- 64.9---
2024-07-13 06:40 am SW 3 4----30.14- 69.8- 64.8---
2024-07-13 06:30 amSSW 3 3----30.14- 69.1- 64.6---
2024-07-13 06:20 am SW 3 4----30.14- 68.5- 64.6---
2024-07-13 06:10 amSSW 5 5----30.13- 68.4- 64.6---
2024-07-13 06:00 amSSW 4 5----30.13+0.03 68.7- 64.6---
2024-07-13 05:50 am SE 2 3----30.14- 68.2- 64.8---
2024-07-13 05:40 am S 3 4----30.13- 68.2- 64.9---
2024-07-13 05:30 am S 2 3----30.12- 68.4- 64.9---
2024-07-13 05:20 amSSW 3 4----30.12- 68.4- 65.3---
2024-07-13 05:10 am SW 3 3----30.12- 69.1- 64.8---
2024-07-13 05:00 am SW 4 4----30.12+0.01 70.2- 64.2---
2024-07-13 04:50 am S 3 3----30.12- 70.0- 64.4---
2024-07-13 04:40 am S 2 2----30.12- 69.6- 64.4---
2024-07-13 04:30 am S 2 3----30.11- 68.5- 64.8---
2024-07-13 04:20 am S 3 3----30.11- 68.5- 65.1---
2024-07-13 04:10 am S 3 4----30.11- 68.5- 65.1---
2024-07-13 04:00 am S 4 5----30.11+0.00 68.7- 64.9---
2024-07-13 03:50 amSSW 3 4----30.11- 68.5- 65.1---
2024-07-13 03:40 amSSW 2 3----30.11- 68.5- 65.5---
2024-07-13 03:30 am S 4 5----30.11- 68.9- 65.5---
2024-07-13 03:20 am S 4 5----30.11- 69.3- 65.7---
2024-07-13 03:10 am S 4 5----30.10- 69.1- 66.0---
2024-07-13 03:00 am SE 2 2----30.10+0.00 68.5- 66.2---
2024-07-13 02:50 amSSE 3 3----30.10- 69.1- 65.8---
2024-07-13 02:40 am S 2 4----30.11- 68.7- 66.2---
2024-07-13 02:30 amSSW 4 5----30.10- 69.1- 66.0---
2024-07-13 02:20 am S 3 3----30.11- 70.0- 66.0---
2024-07-13 02:10 am SW 1 1----30.11- 69.3- 66.2---
2024-07-13 02:00 am S 2 3----30.11+0.01 69.6- 66.2---
2024-07-13 01:50 am S 3 4----30.11- 69.6- 66.0---
2024-07-13 01:40 am S 2 3----30.11- 69.6- 66.4---
2024-07-13 01:30 amSSW 3 4----30.11- 70.2- 66.2---
2024-07-13 01:20 amSSW 3 4----30.11- 70.2- 66.9---
2024-07-13 01:10 am S 2 3----30.11- 70.3- 66.9---
2024-07-13 01:00 am S 3 3----30.11+0.00 70.9- 66.2---
2024-07-13 12:50 am S 2 2----30.11- 70.2- 66.6---
2024-07-13 12:40 am SW 1 2----30.11- 70.3- 66.9---
2024-07-13 12:30 amSSW 2 3----30.11- 70.5- 67.3---
2024-07-13 12:20 am S 3 3----30.11- 71.1- 66.6---
2024-07-13 12:10 am S 3 3----30.10- 71.2- 66.6---
2024-07-13 12:00 am S 2 3----30.11+0.02 71.4- 66.7---
2024-07-12 11:50 pm S 3 3----30.11- 71.4- 66.9---
2024-07-12 11:40 pmSSE 2 2----30.10- 71.8- 66.4---
2024-07-12 11:30 pmSSE 1 2----30.10- 71.6- 66.7---
2024-07-12 11:20 pm S 1 1----30.10- 71.4- 67.1---
2024-07-12 11:10 pmSSE 1 2----30.10- 71.6- 66.4---
2024-07-12 11:00 pmSSE 2 3----30.10+0.01 71.6- 66.4---
2024-07-12 10:50 pmSSE 3 3----30.11- 71.6- 66.6---
2024-07-12 10:40 pmSSE 3 3----30.10- 71.4- 67.5---
2024-07-12 10:30 pm SE 2 3----30.10- 71.6- 67.3---
2024-07-12 10:20 pm SE 2 3----30.10- 71.8- 67.3---
2024-07-12 10:10 pmSSE 2 3----30.10- 71.8- 68.0---
2024-07-12 10:00 pmSSE 2 3----30.10+0.04 71.6- 68.9---
2024-07-12 09:50 pm SE 3 4----30.10- 71.6- 69.4---
2024-07-12 09:40 pm SE 3 4----30.09- 71.8- 69.8---
2024-07-12 09:30 pmESE 4 4----30.09- 71.8- 69.4---
2024-07-12 09:20 pm SE 4 5----30.09- 72.1- 70.2---
2024-07-12 09:10 pm SE 6 6----30.09- 72.0- 69.4---
2024-07-12 09:00 pmESE 5 5----30.09+0.02 72.0- 69.8---
2024-07-12 08:50 pmESE 5 5----30.08- 72.0- 70.0---
2024-07-12 08:40 pmESE 5 6----30.09- 72.1- 69.8---
2024-07-12 08:30 pm E 6 6----30.09- 72.0- 70.0---
2024-07-12 08:20 pm E 5 5----30.09- 72.1- 70.3---
2024-07-12 08:10 pm E 6 7----30.09- 72.1- 70.0---
2024-07-12 08:00 pmESE 6 6----30.09- 72.3- 69.8---
2024-07-12 07:50 pmESE 6 6----30.08- 72.3- 69.8---
2024-07-12 07:40 pmESE 6 6----30.09- 72.3- 69.6---
2024-07-12 07:30 pmESE 6 6----30.08- 72.3- 69.4---
2024-07-12 07:20 pmESE 6 7----30.07- 72.3- 69.8---
2024-07-12 07:10 pmESE 7 8----30.07- 72.5- 69.4---
2024-07-12 07:00 pmESE 7 8----30.07-0.01 72.3- 69.4---
2024-07-12 06:50 pmESE 8 9----30.06- 72.3- 69.1---
2024-07-12 06:40 pmESE 7 8----30.07- 72.5- 69.6---
2024-07-12 06:30 pmESE 8 8----30.06- 72.5- 69.4---
2024-07-12 06:20 pmESE 7 8----30.06- 72.5- 69.4---
2024-07-12 06:10 pmESE 7 7----30.06- 72.5- 69.6---
2024-07-12 06:00 pmESE 7 7----30.06-0.01 72.5- 69.4---
2024-07-12 05:50 pm E 8 8----30.06- 72.5- 69.1---
2024-07-12 05:40 pmESE 7 7----30.06- 72.5- 69.1---
2024-07-12 05:30 pmESE 7 8----30.06- 72.5- 69.3---
2024-07-12 05:20 pm E 6 6----30.07- 72.5- 69.1---
2024-07-12 05:10 pm E 6 7----30.07- 72.5- 69.1---
2024-07-12 04:50 pm E 7 8----30.07- 72.5- 68.7---
2024-07-12 04:40 pm E 7 8----30.07- 72.5- 68.7---
2024-07-12 04:30 pm E 7 8----30.07- 72.3- 68.4---
2024-07-12 04:20 pm E 8 8----30.07- 72.5- 68.4---
2024-07-12 04:10 pm E 7 8----30.07- 72.7- 68.9---
2024-07-12 04:00 pm E 6 6----30.08-0.01 72.5- 68.9---
2024-07-12 03:50 pmENE 7 8----30.08- 73.4- 69.1---
2024-07-12 03:40 pm E 6 6----30.08- 72.9- 69.1---
2024-07-12 03:30 pm E 6 7----30.08- 73.4- 69.1---
2024-07-12 03:20 pm E 6 7----30.08- 73.2- 68.9---
2024-07-12 03:10 pm E 7 7----30.08- 73.4- 68.7---
2024-07-12 03:00 pm E 6 6----30.08-0.03 73.4- 68.4---
2024-07-12 02:50 pm E 6 6----30.08- 73.0- 68.9---
2024-07-12 02:40 pm E 6 6----30.08- 72.0- 68.7---
2024-07-12 02:30 pm E 5 6----30.08- 73.4- 68.7---
2024-07-12 02:20 pm E 6 7----30.08- 72.7- 68.4---
2024-07-12 02:10 pmENE 6 6----30.09- 74.1- 68.9---
2024-07-12 02:00 pmENE 6 6----30.09-0.01 73.4- 68.5---
2024-07-12 01:50 pm E 5 6----30.09- 73.4- 68.4---
2024-07-12 01:40 pm E 5 6----30.09- 73.0- 68.4---
2024-07-12 01:30 pm E 5 6----30.09- 71.4- 68.0---
2024-07-12 01:20 pm E 5 6----30.09- 71.4- 67.8---
2024-07-12 01:10 pm E 5 6----30.09- 71.8- 68.0---
2024-07-12 01:00 pm E 6 7----30.09+0.00 71.2- 67.8---
2024-07-12 12:50 pm E 7 7----30.09- 70.7- 67.8---
2024-07-12 12:40 pm E 6 7----30.10- 70.7- 68.0---
2024-07-12 12:30 pm E 6 6----30.10- 70.5- 68.0---
2024-07-12 12:20 pm E 6 7----30.10- 70.2- 67.8---
2024-07-12 12:10 pm E 7 7----30.11- 70.2- 67.6---
2024-07-12 12:00 pm E 7 7----30.10+0.01 70.2- 67.5---
2024-07-12 11:50 am E 6 7----30.10- 70.2- 67.8---